Location: Étavigny
(49.1201°N, 2.9800°E)
Time: 15:31:09
(UTC+00:00)

IRIDIUM 114 - Pass Details

Date: 28 January 2023
Orbit: 776 x 779 km, 86.4° (Epoch: 26 March)

Event Time Altitude Azimuth Distance (km) Brightness Sun altitude
Rises 18:33:55 0° 0° (N) 3,278 7.5 -18.9°
Reaches altitude 10° 18:36:24 10° 7° (N) 2,346 6.7 -19.3°
Maximum altitude 18:41:25 45° 80° (E) 1,064 4.5 -20.1°
Enters shadow 18:43:24 31° 130° (SE) 1,346 5.2 -20.5°
Exits shadow 18:48:09 - 158° (SSE) 2,989 7.2 -21.2°
Sets 18:48:50 0° 159° (SSE) 3,250 7.4 -21.3°
